Time,TemperatureF,DewpointF,PressureIn,WindDirection,WindDirectionDegrees,WindSpeedMPH,WindSpeedGustMPH,Humidity,HourlyPrecipIn,Conditions,Clouds,dailyrainin,SolarRadiationWatts/m^2,SoftwareType,DateUTC
2013-07-26 00:02:00,63.0,49.0,-100.00,North,354,8.0,12.0,60,-99.99,,,0.02,0.000000,,2013-07-26 06:02:00,
2013-07-26 00:12:00,63.0,49.0,-100.00,North,354,8.0,12.0,60,-99.99,,,0.02,0.000000,,2013-07-26 06:12:00,
2013-07-26 00:33:00,62.0,49.0,-100.00,North,5,6.0,14.0,63,0.00,,,0.02,0.000000,,2013-07-26 06:33:00,
2013-07-26 00:43:00,62.0,49.0,-100.00,North,5,6.0,14.0,63,0.00,,,0.02,0.000000,,2013-07-26 06:43:00,
2013-07-26 00:52:00,62.0,49.0,-100.00,North,5,6.0,14.0,63,0.00,,,0.02,0.000000,,2013-07-26 06:52:00,
2013-07-26 01:02:00,62.0,49.0,-100.00,North,5,6.0,14.0,63,0.00,,,0.02,0.000000,,2013-07-26 07:02:00,
2013-07-26 01:12:00,62.0,49.0,-100.00,North,5,6.0,14.0,63,0.00,,,0.02,0.000000,,2013-07-26 07:12:00,
2013-07-26 01:43:00,60.0,49.0,-100.00,North,2,7.0,12.0,67,0.00,,,0.02,0.000000,,2013-07-26 07:43:00,
2013-07-26 01:53:00,60.0,49.0,-100.00,North,2,7.0,12.0,67,0.00,,,0.02,0.000000,,2013-07-26 07:53:00,
2013-07-26 02:02:00,60.0,49.0,-100.00,North,2,7.0,12.0,67,0.00,,,0.02,0.000000,,2013-07-26 08:02:00,
2013-07-26 02:12:00,60.0,49.0,-100.00,North,2,7.0,12.0,67,0.00,,,0.02,0.000000,,2013-07-26 08:12:00,
2013-07-26 02:32:00,58.0,49.0,-100.00,NNW,346,7.0,11.0,72,0.00,,,0.02,0.000000,,2013-07-26 08:32:00,
2013-07-26 02:44:00,58.0,49.0,-100.00,NNW,346,7.0,11.0,72,0.00,,,0.02,0.000000,,2013-07-26 08:44:00,
2013-07-26 02:52:00,58.0,49.0,-100.00,NNW,346,7.0,11.0,72,0.00,,,0.02,0.000000,,2013-07-26 08:52:00,
2013-07-26 03:02:00,58.0,49.0,-100.00,NNW,346,7.0,11.0,72,0.00,,,0.02,0.000000,,2013-07-26 09:02:00,
2013-07-26 03:12:00,58.0,49.0,-100.00,NNW,346,7.0,11.0,72,0.00,,,0.02,0.000000,,2013-07-26 09:12:00,
2013-07-26 03:43:00,56.0,50.0,-100.00,NNE,16,11.0,15.0,79,0.00,,,0.02,0.000000,,2013-07-26 09:43:00,
2013-07-26 03:52:00,56.0,50.0,-100.00,NNE,16,11.0,15.0,79,0.00,,,0.02,0.000000,,2013-07-26 09:52:00,
2013-07-26 04:02:00,56.0,50.0,-100.00,NNE,16,11.0,15.0,79,0.00,,,0.02,0.000000,,2013-07-26 10:02:00,
2013-07-26 04:12:00,56.0,50.0,-100.00,NNE,16,11.0,15.0,79,0.00,,,0.02,0.000000,,2013-07-26 10:12:00,
2013-07-26 04:33:00,52.0,46.0,-100.00,NNE,18,7.0,20.0,80,0.00,,,0.02,0.000000,,2013-07-26 10:33:00,
2013-07-26 04:43:00,52.0,46.0,-100.00,NNE,18,7.0,20.0,80,0.00,,,0.02,0.000000,,2013-07-26 10:43:00,
2013-07-26 04:52:00,52.0,46.0,-100.00,NNE,18,7.0,20.0,80,0.00,,,0.02,0.000000,,2013-07-26 10:52:00,
2013-07-26 05:02:00,52.0,46.0,-100.00,NNE,18,7.0,20.0,80,0.00,,,0.02,0.000000,,2013-07-26 11:02:00,
2013-07-26 05:12:00,52.0,46.0,-100.00,NNE,18,7.0,20.0,80,0.00,,,0.02,0.000000,,2013-07-26 11:12:00,
2013-07-26 05:32:00,52.0,46.0,-100.00,NNE,24,10.0,20.0,81,0.00,,,0.02,0.000000,,2013-07-26 11:32:00,
2013-07-26 05:43:00,52.0,46.0,-100.00,NNE,24,10.0,20.0,81,0.00,,,0.02,0.000000,,2013-07-26 11:43:00,
2013-07-26 05:52:00,52.0,46.0,-100.00,NNE,24,10.0,20.0,81,0.00,,,0.02,0.000000,,2013-07-26 11:52:00,
2013-07-26 06:02:00,52.0,46.0,-100.00,NNE,24,10.0,20.0,81,0.00,,,0.02,0.000000,,2013-07-26 12:02:00,
2013-07-26 06:12:00,52.0,46.0,-100.00,NNE,24,10.0,20.0,81,0.00,,,0.02,0.000000,,2013-07-26 12:12:00,
2013-07-26 06:33:00,50.0,48.0,-100.00,NW,320,10.0,21.0,94,0.21,,,0.23,0.000000,,2013-07-26 12:33:00,
2013-07-26 06:43:00,50.0,48.0,-100.00,NW,320,10.0,21.0,94,0.21,,,0.23,0.000000,,2013-07-26 12:43:00,
2013-07-26 06:53:00,50.0,48.0,-100.00,NW,320,10.0,21.0,94,0.21,,,0.23,0.000000,,2013-07-26 12:53:00,
2013-07-26 07:02:00,50.0,48.0,-100.00,NW,320,10.0,21.0,94,0.21,,,0.23,0.000000,,2013-07-26 13:02:00,
2013-07-26 07:12:00,50.0,48.0,-100.00,NW,320,10.0,21.0,94,0.21,,,0.23,0.000000,,2013-07-26 13:12:00,
2013-07-26 07:43:00,51.0,50.0,-100.00,South,180,8.0,13.0,96,0.09,,,0.30,7.000000,,2013-07-26 13:43:00,
2013-07-26 07:53:00,51.0,50.0,-100.00,South,180,8.0,13.0,96,0.09,,,0.30,7.000000,,2013-07-26 13:53:00,
2013-07-26 08:02:00,51.0,50.0,-100.00,South,180,8.0,13.0,96,0.09,,,0.30,7.000000,,2013-07-26 14:02:00,
2013-07-26 08:12:00,51.0,50.0,-100.00,South,180,8.0,13.0,96,0.09,,,0.30,7.000000,,2013-07-26 14:12:00,
2013-07-26 08:33:00,52.0,49.0,-100.00,North,10,7.0,17.0,90,0.01,,,0.31,117.000000,,2013-07-26 14:33:00,
2013-07-26 08:43:00,52.0,49.0,-100.00,North,10,7.0,17.0,90,0.01,,,0.31,117.000000,,2013-07-26 14:43:00,
2013-07-26 08:53:00,52.0,49.0,-100.00,North,10,7.0,17.0,90,0.01,,,0.31,117.000000,,2013-07-26 14:53:00,
2013-07-26 09:02:00,52.0,49.0,-100.00,North,10,7.0,17.0,90,0.01,,,0.31,117.000000,,2013-07-26 15:02:00,
2013-07-26 09:12:00,52.0,49.0,-100.00,North,10,7.0,17.0,90,0.01,,,0.31,117.000000,,2013-07-26 15:12:00,
2013-07-26 09:13:00,56.0,47.0,-100.00,NNE,27,8.0,13.0,71,0.00,,,0.31,441.000000,,2013-07-26 15:13:00,
2013-07-26 09:43:00,56.0,47.0,-100.00,NNE,27,8.0,13.0,71,0.00,,,0.31,441.000000,,2013-07-26 15:43:00,
2013-07-26 09:53:00,56.0,47.0,-100.00,NNE,27,8.0,13.0,71,0.00,,,0.31,441.000000,,2013-07-26 15:53:00,
2013-07-26 10:02:00,56.0,47.0,-100.00,NNE,27,8.0,13.0,71,0.00,,,0.31,441.000000,,2013-07-26 16:02:00,
2013-07-26 10:32:00,58.0,46.0,-100.00,NNE,22,9.0,13.0,65,0.00,,,0.31,566.000000,,2013-07-26 16:32:00,
2013-07-26 10:43:00,58.0,46.0,-100.00,NNE,22,9.0,13.0,65,0.00,,,0.31,566.000000,,2013-07-26 16:43:00,
2013-07-26 10:54:00,58.0,46.0,-100.00,NNE,22,9.0,13.0,65,0.00,,,0.31,566.000000,,2013-07-26 16:54:00,
2013-07-26 11:02:00,58.0,46.0,-100.00,NNE,22,9.0,13.0,65,0.00,,,0.31,566.000000,,2013-07-26 17:02:00,
2013-07-26 11:12:00,58.0,46.0,-100.00,NNE,22,9.0,13.0,65,0.00,,,0.31,566.000000,,2013-07-26 17:12:00,
2013-07-26 11:33:00,62.0,49.0,-100.00,NNE,33,7.0,14.0,62,0.00,,,0.31,709.000000,,2013-07-26 17:33:00,
2013-07-26 11:43:00,62.0,49.0,-100.00,NNE,33,7.0,14.0,62,0.00,,,0.31,709.000000,,2013-07-26 17:43:00,
2013-07-26 11:53:00,62.0,49.0,-100.00,NNE,33,7.0,14.0,62,0.00,,,0.31,709.000000,,2013-07-26 17:53:00,
2013-07-26 12:03:00,62.0,49.0,-100.00,NNE,33,7.0,14.0,62,0.00,,,0.31,709.000000,,2013-07-26 18:03:00,
2013-07-26 12:12:00,62.0,49.0,-100.00,NNE,33,7.0,14.0,62,0.00,,,0.31,709.000000,,2013-07-26 18:12:00,
2013-07-26 12:44:00,64.0,50.0,-100.00,NE,34,7.0,12.0,60,0.00,,,0.31,894.000000,,2013-07-26 18:44:00,
2013-07-26 12:52:00,64.0,50.0,-100.00,NE,34,7.0,12.0,60,0.00,,,0.31,894.000000,,2013-07-26 18:52:00,
2013-07-26 13:02:00,64.0,50.0,-100.00,NE,34,7.0,12.0,60,0.00,,,0.31,894.000000,,2013-07-26 19:02:00,
2013-07-26 13:12:00,64.0,50.0,-100.00,NE,34,7.0,12.0,60,0.00,,,0.31,894.000000,,2013-07-26 19:12:00,
2013-07-26 13:32:00,67.0,52.0,-100.00,NE,43,7.0,15.0,58,0.00,,,0.31,1056.000000,,2013-07-26 19:32:00,
2013-07-26 13:43:00,67.0,52.0,-100.00,NE,43,7.0,15.0,58,0.00,,,0.31,1056.000000,,2013-07-26 19:43:00,
2013-07-26 13:52:00,67.0,52.0,-100.00,NE,43,7.0,15.0,58,0.00,,,0.31,1056.000000,,2013-07-26 19:52:00,
2013-07-26 14:02:00,67.0,52.0,-100.00,NE,43,7.0,15.0,58,0.00,,,0.31,1056.000000,,2013-07-26 20:02:00,
2013-07-26 14:12:00,67.0,52.0,-100.00,NE,43,7.0,15.0,58,0.00,,,0.31,1056.000000,,2013-07-26 20:12:00,
2013-07-26 14:43:00,67.0,51.0,-100.00,NE,46,9.0,16.0,57,0.00,,,0.31,1029.000000,,2013-07-26 20:43:00,
2013-07-26 14:53:00,67.0,51.0,-100.00,NE,46,9.0,16.0,57,0.00,,,0.31,1029.000000,,2013-07-26 20:53:00,
2013-07-26 15:02:00,67.0,51.0,-100.00,NE,46,9.0,16.0,57,0.00,,,0.31,1029.000000,,2013-07-26 21:02:00,
2013-07-26 15:12:00,67.0,51.0,-100.00,NE,46,9.0,16.0,57,0.00,,,0.31,1029.000000,,2013-07-26 21:12:00,
2013-07-26 15:43:00,69.0,52.0,-100.00,NE,40,8.0,16.0,54,0.00,,,0.31,956.000000,,2013-07-26 21:43:00,
2013-07-26 15:53:00,69.0,52.0,-100.00,NE,40,8.0,16.0,54,0.00,,,0.31,956.000000,,2013-07-26 21:53:00,
2013-07-26 16:02:00,69.0,52.0,-100.00,NE,40,8.0,16.0,54,0.00,,,0.31,956.000000,,2013-07-26 22:02:00,
2013-07-26 16:12:00,69.0,52.0,-100.00,NE,40,8.0,16.0,54,0.00,,,0.31,956.000000,,2013-07-26 22:12:00,
2013-07-26 16:43:00,69.0,52.0,-100.00,NE,36,7.0,16.0,54,0.00,,,0.31,878.000000,,2013-07-26 22:43:00,
2013-07-26 16:53:00,69.0,52.0,-100.00,NE,36,7.0,16.0,54,0.00,,,0.31,878.000000,,2013-07-26 22:53:00,
2013-07-26 17:02:00,69.0,52.0,-100.00,NE,36,7.0,16.0,54,0.00,,,0.31,878.000000,,2013-07-26 23:02:00,
2013-07-26 17:12:00,69.0,52.0,-100.00,NE,36,7.0,16.0,54,0.00,,,0.31,878.000000,,2013-07-26 23:12:00,
2013-07-26 17:32:00,69.0,51.0,-100.00,NE,43,8.0,13.0,52,0.00,,,0.31,718.000000,,2013-07-26 23:32:00,
2013-07-26 17:43:00,69.0,51.0,-100.00,NE,43,8.0,13.0,52,0.00,,,0.31,718.000000,,2013-07-26 23:43:00,
2013-07-26 17:53:00,69.0,51.0,-100.00,NE,43,8.0,13.0,52,0.00,,,0.31,718.000000,,2013-07-26 23:53:00,
2013-07-26 18:02:00,69.0,51.0,-100.00,NE,43,8.0,13.0,52,0.00,,,0.31,718.000000,,2013-07-27 00:02:00,
2013-07-26 18:12:00,69.0,51.0,-100.00,NE,43,8.0,13.0,52,0.00,,,0.31,718.000000,,2013-07-27 00:12:00,
2013-07-26 18:43:00,69.0,50.0,-100.00,NE,53,8.0,15.0,51,0.00,,,0.31,492.000000,,2013-07-27 00:43:00,
2013-07-26 18:53:00,69.0,50.0,-100.00,NE,53,8.0,15.0,51,0.00,,,0.31,492.000000,,2013-07-27 00:53:00,
2013-07-26 19:02:00,69.0,50.0,-100.00,NE,53,8.0,15.0,51,0.00,,,0.31,492.000000,,2013-07-27 01:02:00,
2013-07-26 19:12:00,69.0,50.0,-100.00,NE,53,8.0,15.0,51,0.00,,,0.31,492.000000,,2013-07-27 01:12:00,
2013-07-26 19:32:00,68.0,50.0,-100.00,ENE,59,7.0,14.0,52,0.00,,,0.31,307.000000,,2013-07-27 01:32:00,
2013-07-26 19:44:00,68.0,50.0,-100.00,ENE,59,7.0,14.0,52,0.00,,,0.31,307.000000,,2013-07-27 01:44:00,
2013-07-26 19:53:00,68.0,50.0,-100.00,ENE,59,7.0,14.0,52,0.00,,,0.31,307.000000,,2013-07-27 01:53:00,
2013-07-26 20:02:00,68.0,50.0,-100.00,ENE,59,7.0,14.0,52,0.00,,,0.31,307.000000,,2013-07-27 02:02:00,
2013-07-26 20:12:00,68.0,50.0,-100.00,ENE,59,7.0,14.0,52,0.00,,,0.31,307.000000,,2013-07-27 02:12:00,
2013-07-26 20:43:00,63.0,48.0,-100.00,NE,49,5.0,14.0,58,0.00,,,-99.99,71.000000,,2013-07-27 02:43:00,
2013-07-26 20:53:00,63.0,48.0,-100.00,NE,49,5.0,14.0,58,0.00,,,-99.99,71.000000,,2013-07-27 02:53:00,
2013-07-26 21:03:00,63.0,48.0,-100.00,NE,49,5.0,14.0,58,0.00,,,-99.99,71.000000,,2013-07-27 03:03:00,
2013-07-26 21:12:00,63.0,48.0,-100.00,NE,49,5.0,14.0,58,0.00,,,-99.99,71.000000,,2013-07-27 03:12:00,
2013-07-26 21:33:00,60.0,48.0,-100.00,North,8,5.0,8.0,64,0.00,,,0.31,3.000000,,2013-07-27 03:33:00,
2013-07-26 21:44:00,60.0,48.0,-100.00,North,8,5.0,8.0,64,0.00,,,0.31,3.000000,,2013-07-27 03:44:00,
2013-07-26 21:52:00,60.0,48.0,-100.00,North,8,5.0,8.0,64,0.00,,,0.31,3.000000,,2013-07-27 03:52:00,
2013-07-26 22:02:00,60.0,48.0,-100.00,North,8,5.0,8.0,64,0.00,,,0.31,3.000000,,2013-07-27 04:02:00,
2013-07-26 22:12:00,60.0,48.0,-100.00,North,8,5.0,8.0,64,0.00,,,0.31,3.000000,,2013-07-27 04:12:00,
2013-07-26 22:32:00,57.0,47.0,-100.00,NNW,347,6.0,10.0,68,0.00,,,-99.99,0.000000,,2013-07-27 04:32:00,
2013-07-26 22:43:00,57.0,47.0,-100.00,NNW,347,6.0,10.0,68,0.00,,,-99.99,0.000000,,2013-07-27 04:43:00,
2013-07-26 22:53:00,57.0,47.0,-100.00,NNW,347,6.0,10.0,68,0.00,,,-99.99,0.000000,,2013-07-27 04:53:00,
2013-07-26 23:02:00,57.0,47.0,-100.00,NNW,347,6.0,10.0,68,0.00,,,-99.99,0.000000,,2013-07-27 05:02:00,
2013-07-26 23:12:00,57.0,47.0,-100.00,NNW,347,6.0,10.0,68,0.00,,,-99.99,0.000000,,2013-07-27 05:12:00,
2013-07-26 23:33:00,56.0,45.0,-100.00,North,358,8.0,12.0,67,0.00,,,0.31,0.000000,,2013-07-27 05:33:00,
2013-07-26 23:43:00,56.0,45.0,-100.00,North,358,8.0,12.0,67,0.00,,,0.31,0.000000,,2013-07-27 05:43:00,
2013-07-26 23:52:00,56.0,45.0,-100.00,North,358,8.0,12.0,67,0.00,,,0.31,0.000000,,2013-07-27 05:52:00,